Weather History for Rapid City, SD

Change the Weather History Date:

Sunday, February 3, 2013

  Actual Average Record
Temperature  
Mean Temperature 40 °F 26 °F  
Max Temperature 58 °F 38 °F 70 °F (1962)
Min Temperature 21 °F 13 °F -25 °F (1996)
Degree Days  
Heating Degree Days 25 39  
Month to date heating degree days 96 118  
Since 1 July heating degree days 4089 4274  
Cooling Degree Days 0 0  
Month to date cooling degree days 0 0  
Year to date cooling degree days 0 0  
Moisture  
Dew Point 19 °F    
Average Humidity 47    
Maximum Humidity 75    
Minimum Humidity 19    
Precipitation  
Precipitation 0.00 in 0.01 in 0.30 in (1955)
Month to date precipitation 0.00 0.03  
Year to date precipitation 0.43 0.33  
Snow  
Snow 0.00 in 0.20 in - ()
Month to date snowfall 0.0 0.5  
Since 1 July snowfall 16.6 18.1  
Snow Depth 0.00 in    
Sea Level Pressure  
Sea Level Pressure 29.97 in    
Wind  
Wind Speed 9 mph (WNW)    
Max Wind Speed 33 mph    
Max Gust Speed 43 mph    
Visibility 10 miles    
Events      
T = Trace of Precipitation, MM = Missing Value Source: NWS Daily Summary

Daily Weather History Graph

Daily Weather History Graph

Search for Another Location

Airport:

Trip Planner

Search our weather history database for the weather conditions in past years. The results will help you decide how hot, cold, wet, or windy it might be!

Date:

Astronomy

Feb. 03, 2013 Rise Set
Actual Time 7:07 AM MST 5:05 PM MST
Civil Twilight 6:36 AM MST 5:36 PM MST
Nautical Twilight 6:02 AM MST 6:10 PM MST
Astronomical Twilight 5:28 AM MST 6:44 PM MST
Moon 12:37 AM MST (2/3) 10:43 AM MST (2/3)
Length of Visible Light 10h 59m
Length of Day
9h 58m
Waning Gibbous, 48% of the Moon is Illuminated
Feb 3
Waning Gibbous
Feb 10
New
Feb 17
First Quarter
Feb 25
Full
Mar 4
Last Quarter

Hourly Weather History & Observations

Time (MST) Temp. Windchill Dew Point Humidity Pressure Visibility Wind Dir Wind Speed Gust Speed Precip Events Conditions
12:52 AM 24.8 °F - 17.6 °F 74% 30.13 in - Calm Calm - N/A   Clear
1:52 AM 26.6 °F - 19.4 °F 74% 30.10 in - Calm Calm - N/A   Clear
2:52 AM 26.1 °F 20.5 °F 18.0 °F 71% 30.14 in - WSW 4.6 mph - N/A   Clear
3:52 AM 26.1 °F - 19.0 °F 75% 30.12 in - Calm Calm - N/A   Clear
4:52 AM 24.8 °F - 17.6 °F 74% 30.02 in - Calm Calm - N/A   Clear
5:52 AM 28.0 °F 22.8 °F 19.0 °F 69% 30.08 in - SSW 4.6 mph - N/A   Clear
6:52 AM 26.1 °F 19.4 °F 17.1 °F 69% 30.06 in 10.0 mi WSW 5.8 mph - N/A   Clear
7:52 AM 30.0 °F - 21.0 °F 69% 30.04 in 10.0 mi Calm Calm - N/A   Clear
8:52 AM 35.1 °F - 24.1 °F 64% 30.00 in 10.0 mi Calm Calm - N/A   Clear
9:52 AM 41.0 °F - 27.0 °F 57% 29.95 in 10.0 mi Calm Calm - N/A   Clear
10:52 AM 50.0 °F - 21.9 °F 33% 29.92 in 10.0 mi SSW 9.2 mph - N/A   Clear
11:52 AM 52.0 °F - 19.9 °F 28% 29.88 in 10.0 mi South 9.2 mph - N/A   Clear
12:52 PM 54.0 °F - 18.0 °F 24% 29.86 in 10.0 mi SW 4.6 mph - N/A   Clear
1:52 PM 57.9 °F - 15.1 °F 19% 29.81 in 10.0 mi NW 12.7 mph 17.3 mph N/A   Clear
2:52 PM 55.0 °F - 15.1 °F 21% 29.82 in 10.0 mi NNW 24.2 mph 36.8 mph N/A   Clear
3:52 PM 52.0 °F - 16.0 °F 24% 29.85 in 10.0 mi NNW 26.5 mph 33.4 mph N/A   Clear
4:52 PM 46.0 °F 38.8 °F 18.0 °F 33% 29.86 in 10.0 mi NW 18.4 mph - N/A   Clear
5:52 PM 42.1 °F 34.2 °F 19.0 °F 40% 29.88 in 10.0 mi NW 16.1 mph - N/A   Clear
6:52 PM 41.0 °F 32.2 °F 19.9 °F 43% 29.91 in 10.0 mi NNW 18.4 mph - N/A   Clear
7:52 PM 39.0 °F 30.3 °F 21.0 °F 49% 29.92 in 10.0 mi NNW 16.1 mph - N/A   Clear
8:52 PM 36.0 °F 28.0 °F 21.0 °F 55% 29.94 in 10.0 mi NNW 11.5 mph - N/A   Clear
9:52 PM 34.0 °F 27.2 °F 21.0 °F 59% 29.94 in 10.0 mi NW 8.1 mph - N/A   Clear
10:52 PM 33.1 °F 24.9 °F 21.9 °F 64% 29.94 in 10.0 mi North 10.4 mph - N/A   Clear
11:52 PM 32.0 °F 23.0 °F 21.9 °F 66% 29.95 in - NNW 11.5 mph - N/A   Clear